Location: Bonnesvalyn
(49.1218°N, 3.3177°E)
Time: 22:57:11
(UTC+00:00)

Lacrosse 4 Rocket - Pass Details

Date: 09 February 2023
Orbit: 535 x 608 km, 68.0° (Epoch: 21 March)

Event Time Altitude Azimuth Distance (km) Brightness Sun altitude
Rises 17:50:26 0° 333° (NNW) 2,852 5.2 -9.3°
Reaches altitude 10° 17:53:52 10° 1° (N) 1,930 4.0 -9.8°
Maximum altitude 17:55:58 13° 30° (NNE) 1,712 3.5 -10.2°
Enters shadow 17:57:31 11° 52° (NE) 1,816 3.4 -10.4°
